Weather History for Winston-Salem, NC

Change the Weather History Date:

Monday, May 6, 2013

  Actual Average Record
Temperature  
Mean Temperature 58 °F -  
Max Temperature 66 °F 74 °F 86 °F (1969)
Min Temperature 53 °F 53 °F 32 °F (1968)
Degree Days  
Heating Degree Days 6    
Growing Degree Days 8 (Base 50)    
Moisture  
Dew Point 56 °F    
Average Humidity 93    
Maximum Humidity 100    
Minimum Humidity 77    
Precipitation  
Precipitation 1.08 in - - ()
Sea Level Pressure  
Sea Level Pressure 29.90 in    
Wind  
Wind Speed 9 mph (ENE)    
Max Wind Speed 16 mph    
Max Gust Speed 22 mph    
Visibility 6 miles    
Events Rain , Thunderstorm    
Averages and records for this station are not official NWS values.
T = Trace of Precipitation, MM = Missing Value Source: NWS Daily Summary

Daily Weather History Graph

Daily Weather History Graph

Search for Another Location

Airport:

Trip Planner

Search our weather history database for the weather conditions in past years. The results will help you decide how hot, cold, wet, or windy it might be!

Date:

Astronomy

May. 06, 2013 Rise Set
Actual Time 6:22 AM EDT 8:12 PM EDT
Civil Twilight 5:54 AM EDT 8:40 PM EDT
Nautical Twilight 5:21 AM EDT 9:14 PM EDT
Astronomical Twilight 4:45 AM EDT 9:50 PM EDT
Moon 4:17 AM EDT (5/6) 5:16 PM EDT (5/6)
Length of Visible Light 14h 46m
Length of Day
13h 50m
Waning Crescent, 11% of the Moon is Illuminated
May 6
Waning Crescent
May 9
New
May 18
First Quarter
May 25
Full
May 31
Last Quarter

Hourly Weather History & Observations

Time (EDT) Temp. Dew Point Humidity Pressure Visibility Wind Dir Wind Speed Gust Speed Precip Events Conditions
12:54 AM 55.0 °F 53.1 °F 93% 29.97 in 9.0 mi ENE 12.7 mph - 0.02 in Rain Light Rain
1:54 AM 55.0 °F 53.1 °F 93% 29.96 in 4.0 mi East 10.4 mph 21.9 mph 0.00 in Rain Light Rain
2:20 AM 53.6 °F 53.6 °F 100% 29.95 in 2.5 mi ENE 16.1 mph 19.6 mph 0.01 in Rain Light Rain
2:27 AM 53.6 °F 53.6 °F 100% 29.94 in 4.0 mi East 13.8 mph 20.7 mph 0.01 in Rain Light Rain
2:54 AM 55.0 °F 53.1 °F 93% 29.93 in 10.0 mi ENE 12.7 mph 19.6 mph 0.01 in   Overcast
3:54 AM 55.0 °F 53.1 °F 93% 29.92 in 6.0 mi East 11.5 mph 21.9 mph 0.01 in Rain Light Rain
4:54 AM 55.0 °F 53.1 °F 93% 29.90 in 10.0 mi ENE 10.4 mph 19.6 mph 0.01 in Rain Light Rain
5:54 AM 55.0 °F 54.0 °F 96% 29.89 in 6.0 mi ENE 11.5 mph - 0.00 in   Overcast
6:47 AM 55.4 °F 53.6 °F 94% 29.92 in 1.8 mi East 10.4 mph 20.7 mph 0.01 in Rain Light Rain
6:54 AM 55.0 °F 54.0 °F 96% 29.91 in 1.8 mi East 10.4 mph 17.3 mph 0.02 in Rain Light Rain
7:03 AM 55.4 °F 53.6 °F 94% 29.91 in 2.5 mi East 9.2 mph - 0.01 in Rain Light Rain
7:16 AM 55.4 °F 53.6 °F 94% 29.92 in 2.0 mi ENE 9.2 mph - 0.02 in Rain Light Rain
7:26 AM 55.4 °F 53.6 °F 94% 29.92 in 5.0 mi ENE 12.7 mph 20.7 mph 0.02 in Rain Light Rain
7:54 AM 55.9 °F 54.0 °F 93% 29.91 in 4.0 mi East 13.8 mph 20.7 mph 0.02 in Rain Light Rain
8:09 AM 55.4 °F 53.6 °F 94% 29.92 in 5.0 mi East 12.7 mph 19.6 mph 0.00 in Rain Light Rain
8:54 AM 55.9 °F 55.0 °F 97% 29.91 in 3.0 mi East 8.1 mph - 0.02 in Rain Light Rain
9:15 AM 55.4 °F 55.4 °F 100% 29.92 in 2.0 mi East 9.2 mph - 0.05 in Rain Light Rain
9:25 AM 55.4 °F 55.4 °F 100% 29.95 in 3.0 mi South 8.1 mph - 0.09 in Rain Rain
9:29 AM 55.4 °F 55.4 °F 100% 29.95 in 1.8 mi South 4.6 mph - 0.13 in Rain Heavy Rain
9:46 AM 57.2 °F 55.4 °F 94% 29.94 in 1.8 mi ENE 4.6 mph - 0.24 in Rain Heavy Rain
9:54 AM 57.0 °F 55.0 °F 93% 29.92 in 2.0 mi ENE 3.5 mph - 0.25 in Rain Light Rain
10:06 AM 57.2 °F 55.4 °F 94% 29.94 in 2.5 mi ESE 4.6 mph - 0.04 in Rain Rain
10:18 AM 57.2 °F 55.4 °F 94% 29.94 in 1.0 mi SW 4.6 mph - 0.15 in Rain Heavy Rain
10:32 AM 57.2 °F 55.4 °F 94% 29.94 in 1.0 mi Calm Calm - 0.25 in Rain Heavy Rain
10:49 AM 57.2 °F 55.4 °F 94% 29.94 in 1.2 mi Calm Calm - 0.33 in Rain Heavy Rain
10:54 AM 57.0 °F 55.0 °F 93% 29.93 in 1.5 mi Calm Calm - 0.36 in Rain Heavy Rain
11:04 AM 57.2 °F 55.4 °F 94% 29.94 in 2.5 mi Calm Calm - 0.04 in Rain Rain
11:23 AM 57.2 °F 57.2 °F 100% 29.94 in 3.0 mi SSE 4.6 mph - 0.07 in Rain Light Rain
11:32 AM 57.2 °F 57.2 °F 100% 29.94 in 2.5 mi ESE 3.5 mph - 0.08 in Rain Light Rain
11:54 AM 59.0 °F 57.0 °F 93% 29.92 in 2.5 mi East 3.5 mph - 0.10 in Rain Rain
12:04 PM 59.0 °F 57.2 °F 94% 29.92 in 3.0 mi ENE 4.6 mph - 0.02 in Rain Light Rain
12:54 PM 60.1 °F 57.0 °F 90% 29.90 in 10.0 mi ENE 4.6 mph - 0.05 in Rain Light Rain
1:05 PM 60.8 °F 57.2 °F 88% 29.90 in 10.0 mi NNE 4.6 mph - 0.00 in   Overcast
1:54 PM 62.1 °F 57.9 °F 86% 29.87 in 10.0 mi NE 5.8 mph - 0.00 in   Overcast
2:54 PM 63.0 °F 57.9 °F 84% 29.86 in 10.0 mi NE 5.8 mph - N/A   Mostly Cloudy
3:12 PM 64.4 °F 59.0 °F 83% 29.86 in 10.0 mi Variable 5.8 mph - N/A   Mostly Cloudy
3:25 PM 64.4 °F 57.2 °F 77% 29.86 in 10.0 mi NE 4.6 mph - N/A   Overcast
3:54 PM 63.0 °F 57.9 °F 84% 29.85 in 7.0 mi ENE 4.6 mph - 0.01 in Rain Light Rain
4:54 PM 62.1 °F 59.0 °F 90% 29.83 in 8.0 mi ENE 6.9 mph - 0.14 in Rain Light Rain
5:22 PM 64.4 °F 60.8 °F 88% 29.84 in 10.0 mi NE 5.8 mph - 0.00 in   Overcast
5:51 PM 64.4 °F 60.8 °F 88% 29.84 in 10.0 mi NE 6.9 mph - 0.00 in   Mostly Cloudy
5:54 PM 64.9 °F 61.0 °F 87% 29.82 in 10.0 mi ENE 8.1 mph - 0.00 in   Mostly Cloudy
6:03 PM 64.4 °F 60.8 °F 88% 29.84 in 10.0 mi ENE 5.8 mph - N/A   Scattered Clouds
6:54 PM 64.9 °F 60.1 °F 84% 29.84 in 10.0 mi Calm Calm - N/A   Overcast
7:54 PM 62.1 °F 59.0 °F 90% 29.84 in 10.0 mi NE 3.5 mph - N/A   Clear
8:18 PM 60.8 °F 59.0 °F 94% 29.87 in 10.0 mi NNE 5.8 mph - N/A Thunderstorm Clear
8:25 PM 60.8 °F 59.0 °F 94% 29.88 in 10.0 mi NNE 6.9 mph - N/A Thunderstorm Partly Cloudy
8:33 PM 60.8 °F 59.0 °F 94% 29.88 in 10.0 mi NNE 9.2 mph - N/A   Scattered Clouds
8:54 PM 60.1 °F 57.9 °F 93% 29.86 in 10.0 mi NE 10.4 mph - N/A   Mostly Cloudy
9:00 PM 60.8 °F 57.2 °F 88% 29.88 in 10.0 mi NE 12.7 mph - N/A   Mostly Cloudy
9:36 PM 57.2 °F 55.4 °F 94% 29.89 in 10.0 mi NE 9.2 mph - N/A Thunderstorm Overcast
9:43 PM 57.2 °F 55.4 °F 94% 29.90 in 10.0 mi NE 9.2 mph - N/A Thunderstorm Overcast
9:54 PM 57.9 °F 55.9 °F 93% 29.89 in 10.0 mi NE 6.9 mph 16.1 mph N/A Thunderstorm Overcast
10:30 PM 57.2 °F 55.4 °F 94% 29.92 in 10.0 mi NNW 4.6 mph - N/A   Overcast
10:54 PM 57.9 °F 55.0 °F 90% 29.92 in 6.0 mi Calm Calm - 0.01 in Rain Light Rain
11:16 PM 57.2 °F 55.4 °F 94% 29.92 in 10.0 mi NNE 8.1 mph - 0.05 in   Overcast
11:27 PM 57.2 °F 55.4 °F 94% 29.92 in 10.0 mi NE 3.5 mph - 0.05 in Thunderstorm Overcast
11:54 PM 57.0 °F 55.0 °F 93% 29.90 in 10.0 mi NE 4.6 mph - 0.05 in Rain Light Rain